Tracking 19280 objects as of 13-Nov-2018
HD Live streaming from Space Station
objects crossing your sky now

INTELSAT 706

Track INTELSAT 706 now!
INTELSAT 706 is classified as:


NORAD ID: 23571
Int'l Code: 1995-023A
Perigee: 36,129.4 km
Apogee: 36,149.9 km
Inclination: 5.4 °
Period: 1,453.8 minutes
Semi major axis: 42510 km
RCS: 22.4876 m2 (large)
Launch date: May 17, 1995
Source: International Telecommunications Satellite Organization (ITSO)
Launch site: FRENCH GUIANA (FRGUI)

42 C-band, 36 Ku-band; broadcasting, business services, direct-to-home TV broadcasting, telecommunications, VSATnetworks Atlantic Ocean region.
aabbcc
Your satellite tracking list
Your tracking list is empty




NASA's NSSDC Master Catalog

Two Line Element Set (TLE):
1 23571U 95023A   18317.15396692 -.00000103  00000-0  00000+0 0  9992
2 23571   5.4170  62.4499 0002408 197.2977 132.5116  0.99050385 85817
Source of the keplerian elements: AFSPC